This is the latest recevied weather packets stored in our database for station/object KG5TTF. If no packets are shown the sender has not sent any weather packets the latest 10 day(s).
| Time | Temp. | Humidity | Pressure | Rain* | Wind** | Luminosity | Snow |
|---|---|---|---|---|---|---|---|
| 1777988202 | 0.56° C | 98% | 1017.2 hPa | 0 mm | - | 14 W/m² | - |
| 1777987899 | 0.56° C | 98% | 1017.2 hPa | 0 mm | - | 12 W/m² | - |
| 1777987595 | 1.11° C | 98% | 1017.1 hPa | 0 mm | - | 12 W/m² | - |
| 1777987293 | 1.11° C | 98% | 1017.1 hPa | 0 mm | - | 10 W/m² | - |
| 1777986989 | 1.11° C | 98% | 1017 hPa | 0 mm | - | 8 W/m² | - |
| 1777986687 | 1.11° C | 97% | 1016.6 hPa | 0 mm | - | 11 W/m² | - |
| 1777986385 | 1.11° C | 97% | 1016.5 hPa | 0 mm | - | 12 W/m² | - |
| 1777986083 | 1.67° C | 97% | 1016.4 hPa | 0 mm | - | 10 W/m² | - |
| 1777985779 | 1.67° C | 97% | 1016 hPa | 0 mm | - | 9 W/m² | - |
| 1777985476 | 1.67° C | 97% | 1016 hPa | 0 mm | - | 8 W/m² | - |
| 1777985173 | 2.22° C | 97% | 1015.9 hPa | 0 mm | - | 9 W/m² | - |
| 1777984870 | 2.78° C | 97% | 1016 hPa | 0 mm | - | 8 W/m² | - |
| 1777984566 | 3.33° C | 97% | 1015.8 hPa | 1.78 mm | - | 4 W/m² | - |
| 1777984263 | 3.89° C | 97% | 1015.5 hPa | 1.78 mm | - | 4 W/m² | - |
| 1777983959 | 3.89° C | 97% | 1015.7 hPa | 1.27 mm | - | 4 W/m² | - |
| 1777983656 | 3.89° C | 97% | 1015.9 hPa | 1.27 mm | - | 2 W/m² | - |
| 1777983352 | 3.89° C | 97% | 1015.8 hPa | 1.78 mm | - | 2 W/m² | - |
| 1777983049 | 3.89° C | 97% | 1015.8 hPa | 1.78 mm | - | 1 W/m² | - |
| 1777982746 | 3.89° C | 97% | 1015.7 hPa | 1.27 mm | - | 1 W/m² | - |
| 1777982441 | 3.89° C | 97% | 1015.5 hPa | 3.05 mm | - | 1 W/m² | - |
| 1777982136 | 3.89° C | 96% | 1015.7 hPa | 1.78 mm | - | 0 W/m² | - |
| 1777981834 | 3.89° C | 96% | 1015.7 hPa | 0 mm | - | 0 W/m² | - |
| 1777981531 | 3.89° C | 96% | 1015.7 hPa | 0 mm | - | 0 W/m² | - |
| 1777981227 | 3.89° C | 96% | 1015.5 hPa | 0 mm | - | 0 W/m² | - |
| 1777980924 | 3.89° C | 96% | 1015.2 hPa | 0 mm | - | 0 W/m² | - |
* Rain latest hour (hover to see other rain measurements)
** Current wind speed in m/s (hover to see current wind gust speed)